Wind_Speed
17 16 15 16 14 15 16 16 13 13 15 13 12 10 4 5 4 6 8 8 9 10 10 9 8 9 10 9 9 10 10 10 7 5 4 5 6 8 10 11 11 14 18 17
12 13 13 16 17 18 18 17 12 16 17 13 13 7 6 5 6 7 8 8 8 11 11 11 10 9 8 7 6 6 5 6 5 5 5 6 8 7 9 10 12 10 10 10
13 8 8 6 15 16 16 14 14 14 14 12 11 12 10 7 9 11 11 12 12 13 13 14 13 12 11 10 9 8 7 9 8 8 8 9 8 8 8 7 8 10 11 15
5 4 7 10 3 17 18 15 14 15 13 13 12 4 8 6 11 14 14 15 14 15 16 16 15 14 14 13 12 11 12 11 11 11 11 9 7 6 4 5 7 11 13 10
4 9 10 3 5 8 13 15 16 18 18 12 7 10 6 9 13 15 15 15 15 16 17 17 16 16 15 17 16 15 16 14 13 10 7 4 1 2 6 6 3 4 6 9
3 7 8 9 12 14 4 14 11 13 13 10 15 8 7 18 17 18 17 17 17 17 18 18 18 18 19 19 18 17 15 14 11 9 5 2 3 2 2 2 5 8 10 13
11 7 6 4 10 14 10 15 5 10 10 17 13 6 20 24 19 17 18 19 19 18 18 18 19 19 20 19 17 15 13 9 7 4 3 1 1 1 4 6 9 13 16 18
7 6 11 13 11 12 14 6 9 12 14 20 14 14 23 24 22 21 20 20 18 19 19 18 18 17 18 17 15 12 8 6 5 5 3 1 2 5 8 11 13 14 15 15
7 6 4 27 19 24 10 11 10 13 15 20 20 21 24 24 23 21 21 21 20 21 21 18 17 16 17 15 13 10 8 7 6 3 1 3 6 8 8 9 10 11 11 12
5 10 13 17 23 10 12 12 9 11 17 24 27 27 26 24 23 22 22 22 22 22 21 20 17 16 14 13 11 10 9 6 4 2 3 5 6 7 7 9 11 12 12 13
14 14 15 17 19 20 15 15 14 12 19 25 28 28 28 26 25 24 23 22 21 21 20 20 19 17 15 13 11 9 7 4 2 3 3 4 6 6 7 10 13 13 13 16
10 16 12 20 8 17 21 22 17 18 21 24 28 31 29 27 26 25 25 24 22 21 22 21 20 17 15 13 10 7 4 3 2 4 5 4 4 4 12 11 13 14 15 17
12 16 15 15 12 9 17 18 19 21 25 32 28 30 30 30 29 28 26 24 24 24 23 22 19 16 14 11 8 5 2 2 4 5 4 5 5 6 5 10 15 15 16 17
19 15 10 14 7 8 13 18 20 19 22 26 31 30 31 30 30 27 26 25 25 25 23 21 18 15 11 8 4 2 2 4 4 5 5 6 7 8 8 9 10 11 15 19
19 19 15 10 9 9 14 17 22 25 27 27 32 34 34 33 31 28 28 28 27 25 21 19 16 12 8 5 2 2 3 4 5 6 7 7 8 9 10 10 11 12 14 15
15 15 16 14 13 16 19 22 23 27 29 30 30 30 30 29 30 29 28 28 27 23 21 17 13 9 6 3 2 3 4 5 6 6 8 8 9 10 10 11 12 12 14 16
7 9 13 13 14 19 20 17 20 22 24 26 28 30 30 29 29 26 25 28 22 20 17 14 10 7 4 2 3 3 4 7 7 7 8 9 10 11 12 12 13 14 14 17
11 13 11 12 15 16 16 19 21 24 25 24 27 33 33 32 32 28 24 18 19 18 13 10 6 4 2 2 3 5 6 7 7 8 9 10 11 12 13 14 15 16 17 18
6 6 7 9 12 16 17 18 21 25 29 30 33 32 32 28 27 23 22 22 14 10 8 7 4 2 1 3 5 6 7 8 9 10 10 11 12 13 14 15 16 17 18 19
5 5 8 11 13 20 25 26 25 25 27 30 31 29 28 24 22 23 19 14 10 8 8 4 2 2 4 6 7 8 8 9 10 11 11 12 13 13 14 15 16 17 18 18
10 11 13 16 16 17 16 19 24 29 30 29 30 28 26 24 21 16 13 10 9 9 6 4 3 5 7 9 9 9 10 10 11 12 12 13 13 13 14 15 16 17 18 19
15 16 19 20 21 23 23 25 29 31 30 26 23 23 22 20 17 13 10 9 9 7 5 5 6 7 9 9 10 10 11 12 13 13 13 14 14 14 15 15 16 17 19 20
18 19 21 23 26 28 28 29 28 25 23 22 20 18 16 14 10 8 8 7 6 6 6 7 9 10 11 10 11 12 13 13 14 14 15 15 15 16 16 16 17 18 19 20
23 25 27 29 30 30 29 23 22 20 17 15 13 11 8 8 7 6 6 6 6 6 8 10 12 14 13 13 13 14 15 14 15 15 14 16 15 16 16 17 18 18 19 21
27 27 25 24 24 24 21 18 17 15 13 11 9 6 4 4 4 4 5 6 8 9 11 12 14 15 15 15 15 16 16 15 14 15 15 15 16 16 17 18 19 19 20 20
25 25 23 22 20 18 16 13 13 11 8 6 4 2 2 4 6 6 7 8 10 11 12 14 15 15 16 16 17 17 16 15 15 15 16 17 17 18 18 19 20 20 20 20
27 26 24 23 20 16 14 13 10 9 7 5 3 3 5 6 7 8 9 10 12 13 15 16 16 17 16 17 16 16 16 15 16 17 18 18 18 19 19 20 20 21 20 20
Wind_Direction
241 250 241 240 239 218 222 231 251 263 254 252 264 250 249 197 202 189 190 191 193 177 163 153 151 170 180 203 214 224 234 239 227 231 233 215 218 207 208 213 213 206 207 213
229 233 232 241 245 251 233 248 255 261 267 266 261 232 231 215 184 175 159 158 156 155 148 143 144 156 160 162 168 191 189 167 157 154 159 169 184 188 194 206 201 204 211 263
236 222 233 254 236 231 228 223 230 260 264 261 238 229 223 194 166 156 142 132 130 128 127 132 138 141 140 141 141 137 135 132 141 145 154 159 166 176 190 204 213 253 262 275
223 172 227 243 213 227 233 238 238 256 256 261 268 191 180 177 164 147 140 130 125 125 125 127 129 129 127 124 124 125 123 133 135 139 141 146 173 199 242 275 279 283 284 278
177 213 255 191 194 188 204 243 240 250 262 244 189 158 177 165 156 149 143 134 131 132 131 128 127 126 125 120 119 120 122 127 134 142 147 149 191 275 285 285 255 262 272 284
168 224 226 239 206 199 228 262 253 251 262 206 178 215 199 169 157 148 142 139 136 133 130 129 127 127 125 121 120 120 125 124 127 141 166 220 264 225 245 272 285 292 295 297
216 242 248 208 161 158 206 260 176 217 225 193 202 246 155 158 153 150 147 143 139 134 132 131 129 129 124 124 122 125 128 144 162 178 203 184 136 293 303 306 305 304 302 297
206 227 239 152 143 208 231 234 208 204 200 197 187 145 152 155 154 152 147 144 140 134 130 128 129 129 124 123 130 139 149 153 156 153 149 150 303 306 309 305 303 305 307 311
223 231 202 185 212 221 229 233 198 196 190 180 166 161 161 158 155 152 149 146 143 139 134 130 131 134 133 137 141 146 148 149 153 165 243 299 305 306 308 313 317 320 324 323
297 260 240 216 222 225 222 217 203 198 186 177 168 164 162 160 158 155 154 152 149 144 138 135 138 144 149 149 152 157 158 161 168 228 298 307 314 318 325 322 328 329 330 329
237 257 273 265 237 226 220 218 218 193 188 179 169 165 165 163 161 160 157 154 151 149 149 150 156 157 157 156 155 159 166 178 218 282 309 325 321 320 328 326 333 333 325 328
236 244 226 262 240 225 220 219 211 187 175 178 175 167 165 164 164 163 159 157 154 155 158 159 162 162 162 162 162 169 184 226 284 308 315 325 330 339 325 336 339 337 331 330
230 239 224 255 278 226 218 215 209 198 186 172 171 169 167 167 167 165 161 160 162 165 168 165 163 165 166 168 170 175 202 278 308 319 324 325 333 335 332 323 335 336 334 329
235 237 250 251 256 261 225 207 197 180 177 179 174 167 166 164 163 161 161 161 167 167 165 164 164 165 165 166 175 200 267 306 314 315 318 326 330 333 332 327 327 323 324 328
233 231 238 259 237 227 206 198 183 175 175 172 177 173 169 165 161 160 165 167 165 163 162 163 165 163 164 172 201 267 296 306 313 315 319 325 331 331 328 329 323 325 326 326
226 227 232 234 232 224 203 190 190 181 177 172 169 169 165 160 159 161 161 162 160 159 163 165 162 164 169 189 226 294 304 313 319 316 317 321 323 325 325 325 325 325 326 324
200 235 225 218 208 193 192 193 187 183 168 167 164 158 154 153 152 145 149 160 166 165 160 163 164 164 176 209 271 286 298 310 310 308 308 313 318 322 323 323 323 323 322 321
242 244 247 246 213 191 182 182 177 175 161 152 154 162 159 152 150 149 147 157 160 162 163 163 171 183 216 265 292 300 302 302 301 302 306 311 316 317 319 319 321 322 322 322
241 249 241 213 195 181 171 164 154 157 168 167 164 159 153 152 149 149 155 161 161 157 179 187 192 225 265 298 302 303 303 301 301 302 304 309 313 314 315 317 319 320 321 323
113 126 132 135 154 161 160 167 166 159 160 159 151 147 142 141 146 152 151 152 170 202 204 204 227 285 304 308 305 302 303 302 300 301 304 305 308 311 312 315 317 319 321 322
120 130 139 149 142 140 147 148 148 143 146 148 144 139 138 143 151 159 166 176 193 202 216 238 277 298 306 309 307 305 304 303 301 301 302 305 307 309 311 314 316 318 320 321
113 119 125 129 126 124 133 139 137 135 133 131 132 137 150 160 166 167 175 197 208 215 239 274 293 303 309 309 305 305 304 302 301 301 302 304 305 307 310 311 314 318 320 320
102 108 112 116 117 118 123 124 125 129 128 133 145 155 157 158 161 171 193 214 225 245 271 292 305 315 318 312 308 305 303 301 299 299 299 299 302 304 307 309 314 317 318 320
103 106 107 112 119 122 118 120 123 127 138 139 136 131 137 160 185 210 232 242 253 271 294 307 312 316 317 311 306 302 301 299 299 297 296 298 298 301 304 308 312 315 317 320
103 107 111 114 111 107 113 118 119 118 120 122 127 137 160 190 229 250 260 265 275 284 292 300 307 311 311 309 304 300 299 299 296 296 293 293 296 300 303 305 309 313 315 317
97 95 96 96 98 103 103 103 103 101 102 113 123 142 255 283 293 292 286 287 290 294 297 304 308 309 307 305 301 298 297 296 298 296 295 296 297 299 300 304 308 311 312 315
95 95 94 93 92 94 97 98 98 95 92 77 35 344 323 318 312 305 299 295 297 301 303 306 307 306 305 303 300 298 298 298 297 298 298 297 298 299 302 305 308 309 309 310
Height
1443 1443 1443 1447 1448 1452 1457 1456 1458 1455 1451 1449 1446 1447 1450 1454 1457 1459 1460 1462 1464 1466 1467 1470 1472 1473 1475 1477 1479 1481 1483 1485 1486 1489 1491 1493 1495 1497 1498 1501 1503 1504 1507 1511
1446 1442 1446 1447 1443 1443 1446 1445 1447 1448 1447 1445 1445 1449 1451 1452 1453 1456 1458 1459 1462 1464 1465 1467 1469 1470 1473 1475 1477 1479 1480 1483 1485 1488 1490 1492 1494 1496 1498 1500 1502 1506 1507 1510
1447 1445 1447 1461 1446 1441 1441 1442 1443 1445 1440 1440 1443 1445 1447 1450 1451 1455 1457 1458 1460 1462 1463 1465 1466 1469 1471 1474 1477 1478 1480 1483 1486 1488 1490 1492 1494 1496 1498 1500 1503 1505 1506 1507
1446 1463 1465 1430 1430 1431 1433 1433 1434 1435 1435 1436 1438 1441 1447 1450 1451 1454 1456 1457 1460 1461 1462 1464 1466 1469 1471 1474 1476 1479 1481 1484 1487 1489 1491 1493 1494 1496 1499 1501 1502 1503 1502 1503
1449 1444 1430 1434 1434 1433 1434 1431 1427 1429 1429 1431 1442 1444 1447 1448 1450 1453 1455 1457 1459 1461 1463 1465 1467 1469 1472 1474 1477 1479 1482 1485 1488 1490 1492 1494 1495 1496 1497 1498 1500 1501 1501 1500
1449 1439 1443 1420 1418 1424 1427 1426 1421 1424 1426 1431 1440 1438 1431 1445 1447 1450 1453 1455 1458 1461 1463 1465 1468 1470 1473 1475 1478 1481 1484 1487 1489 1491 1492 1493 1494 1495 1495 1496 1496 1496 1496 1495
1434 1435 1418 1412 1416 1423 1433 1419 1417 1420 1422 1429 1432 1429 1432 1440 1446 1450 1452 1454 1457 1461 1463 1466 1469 1472 1474 1476 1479 1483 1485 1487 1489 1490 1491 1492 1492 1493 1493 1494 1493 1492 1491 1490
1430 1437 1430 1413 1420 1417 1407 1410 1413 1415 1418 1422 1429 1431 1435 1439 1444 1448 1451 1454 1458 1461 1464 1468 1470 1473 1475 1478 1480 1482 1484 1486 1487 1488 1489 1490 1490 1490 1490 1489 1488 1487 1485 1483
1415 1404 1400 1403 1400 1403 1404 1406 1408 1411 1414 1418 1423 1429 1435 1439 1444 1448 1451 1455 1458 1461 1464 1467 1471 1473 1475 1477 1479 1481 1482 1484 1485 1487 1487 1487 1488 1487 1487 1485 1483 1481 1480 1478
1414 1398 1400 1399 1398 1399 1401 1404 1405 1407 1410 1413 1417 1424 1433 1439 1443 1447 1451 1454 1457 1459 1462 1465 1469 1472 1474 1475 1477 1479 1481 1482 1483 1484 1484 1484 1483 1483 1482 1480 1478 1476 1475 1472
1400 1397 1400 1397 1394 1395 1397 1399 1401 1404 1407 1409 1414 1421 1427 1435 1441 1445 1450 1453 1456 1458 1460 1463 1466 1469 1472 1474 1477 1479 1480 1480 1480 1481 1480 1480 1479 1479 1477 1475 1473 1472 1469 1466
1387 1382 1390 1388 1388 1391 1394 1394 1397 1399 1403 1409 1412 1415 1423 1431 1438 1443 1446 1449 1453 1456 1458 1461 1464 1467 1469 1472 1474 1476 1478 1479 1479 1478 1477 1477 1476 1475 1472 1471 1469 1467 1464 1461
1382 1385 1385 1385 1385 1384 1388 1391 1392 1395 1399 1400 1407 1412 1419 1425 1431 1436 1441 1446 1448 1451 1456 1459 1462 1466 1468 1471 1472 1473 1474 1475 1475 1476 1475 1473 1472 1470 1470 1467 1463 1462 1459 1456
1379 1380 1381 1380 1380 1380 1385 1386 1389 1393 1399 1402 1401 1408 1414 1421 1428 1434 1438 1443 1445 1450 1455 1459 1461 1464 1467 1468 1469 1470 1470 1471 1471 1472 1471 1470 1468 1466 1464 1463 1461 1459 1455 1451
1374 1375 1376 1375 1376 1377 1379 1386 1387 1387 1392 1398 1402 1405 1409 1414 1424 1430 1434 1438 1444 1449 1453 1457 1461 1463 1465 1466 1468 1468 1468 1467 1467 1467 1467 1466 1464 1461 1460 1458 1456 1453 1450 1447
1371 1372 1373 1372 1371 1374 1378 1380 1387 1386 1388 1394 1399 1405 1411 1417 1421 1427 1432 1437 1442 1447 1451 1455 1458 1460 1463 1466 1464 1465 1466 1465 1464 1464 1463 1461 1459 1457 1455 1453 1451 1448 1446 1442
1369 1370 1369 1368 1369 1369 1373 1382 1383 1389 1390 1395 1399 1405 1410 1415 1421 1430 1435 1437 1443 1449 1452 1454 1456 1458 1459 1460 1463 1460 1461 1462 1461 1460 1459 1457 1455 1453 1450 1448 1446 1443 1441 1437
1365 1364 1365 1367 1367 1371 1376 1378 1381 1388 1391 1399 1403 1406 1410 1417 1422 1428 1435 1446 1445 1448 1452 1454 1454 1455 1457 1457 1458 1459 1458 1457 1457 1456 1454 1452 1450 1448 1446 1443 1441 1438 1435 1432
1364 1364 1363 1364 1367 1371 1376 1381 1384 1387 1389 1393 1401 1408 1414 1420 1423 1434 1440 1442 1449 1450 1455 1453 1452 1453 1453 1455 1454 1455 1455 1454 1453 1451 1449 1447 1445 1443 1441 1438 1436 1433 1430 1427
1364 1364 1365 1369 1373 1374 1374 1378 1382 1387 1392 1396 1405 1412 1416 1424 1431 1435 1441 1445 1448 1452 1455 1453 1451 1451 1451 1451 1451 1451 1450 1449 1449 1447 1445 1443 1441 1439 1436 1434 1431 1428 1425 1422
1368 1368 1370 1373 1376 1376 1382 1383 1387 1392 1400 1405 1409 1416 1422 1429 1436 1438 1440 1444 1448 1451 1452 1449 1449 1449 1448 1448 1448 1446 1445 1445 1445 1443 1441 1438 1436 1434 1431 1429 1426 1423 1421 1417
1375 1376 1378 1379 1380 1383 1388 1392 1395 1401 1408 1412 1418 1423 1427 1433 1437 1439 1442 1446 1448 1449 1449 1448 1448 1446 1445 1444 1444 1442 1441 1441 1440 1438 1436 1433 1431 1429 1426 1424 1421 1419 1416 1413
1383 1385 1386 1388 1390 1394 1399 1404 1408 1411 1415 1420 1424 1428 1431 1434 1437 1441 1444 1446 1446 1446 1446 1446 1445 1444 1442 1441 1440 1439 1437 1436 1435 1433 1430 1428 1426 1424 1421 1419 1417 1414 1411 1408
1391 1393 1395 1397 1400 1403 1407 1413 1416 1420 1423 1426 1429 1431 1434 1437 1440 1442 1443 1444 1444 1444 1443 1443 1442 1441 1439 1438 1436 1435 1433 1432 1430 1428 1425 1423 1421 1419 1416 1414 1412 1410 1407 1403
1400 1401 1405 1407 1408 1413 1417 1420 1423 1426 1428 1431 1433 1435 1436 1439 1441 1441 1442 1442 1441 1441 1440 1439 1438 1437 1435 1434 1432 1430 1429 1427 1425 1423 1421 1419 1416 1414 1411 1409 1407 1404 1401 1398
1409 1411 1413 1415 1418 1421 1423 1425 1428 1431 1433 1435 1436 1437 1439 1439 1439 1440 1439 1439 1439 1437 1437 1435 1433 1432 1431 1429 1428 1426 1424 1422 1420 1417 1415 1413 1410 1408 1406 1404 1401 1399 1396 1393
1417 1419 1421 1423 1425 1427 1428 1430 1432 1434 1436 1438 1439 1439 1440 1439 1438 1437 1437 1437 1436 1434 1433 1431 1429 1428 1427 1425 1423 1421 1419 1417 1414 1412 1409 1407 1404 1402 1400 1398 1396 1393 1390 1387